Temperature
13 13 14 15 12 10 12 13 13 14 14 15 15 15 14 13 14 15 14 14 15 15 15 16 16 16 16 16 16 16 16 16 16 16 16 16 16 16 16 16 16 16 16 16 16 15 15 15 15
13 13 14 14 11 11 13 12 13 14 15 15 15 14 13 13 14 14 14 14 15 15 15 16 16 16 16 16 16 16 16 16 16 16 16 16 16 16 16 16 16 16 16 16 15 15 15 15 15
13 13 14 10 10 12 13 13 13 14 15 15 14 13 13 13 13 13 14 14 14 15 15 15 16 16 16 16 16 16 16 16 16 16 16 16 16 16 16 16 16 16 16 15 15 15 15 15 15
13 14 13 10 11 11 12 13 12 13 15 14 13 12 12 12 13 13 13 14 14 15 15 15 15 15 15 15 16 16 16 16 16 16 16 16 16 16 16 16 16 15 15 15 15 15 15 15 15
13 13 10 10 11 11 11 12 13 13 13 13 13 11 11 12 12 13 13 14 14 15 15 15 15 15 15 15 15 15 16 16 16 16 16 16 16 16 16 16 16 15 15 15 15 15 15 15 15
13 10 9 10 11 12 12 13 13 12 12 13 12 11 11 12 13 13 13 14 14 14 15 15 15 15 15 15 15 15 15 15 15 15 16 16 15 16 15 16 15 15 15 15 15 15 15 15 15
11 8 9 9 10 12 12 13 12 11 12 12 12 11 11 12 12 13 13 14 14 14 14 14 15 15 15 15 15 15 15 15 15 15 15 15 15 15 15 15 15 15 15 15 15 15 15 15 15
12 8 9 9 10 12 12 12 12 12 12 12 13 11 11 12 12 13 13 13 14 14 14 14 14 14 14 15 15 15 15 15 15 15 15 15 15 15 15 15 15 15 15 15 15 15 15 15 15
12 8 9 9 10 11 11 11 12 12 12 12 12 12 12 12 12 12 13 13 13 13 13 14 14 14 14 14 14 14 14 14 14 15 15 15 15 15 15 15 15 15 15 15 15 15 15 15 15
10 8 10 10 10 10 11 11 11 11 11 11 11 11 11 12 12 12 13 13 13 13 13 13 13 13 14 14 14 14 14 14 14 14 14 14 14 14 14 15 14 14 14 14 15 15 15 15 14
9 8 9 9 10 11 10 10 11 11 10 10 11 11 11 12 12 12 12 12 12 12 12 13 13 13 13 13 13 14 14 14 14 14 14 14 14 14 14 14 14 14 14 14 14 14 14 14 14
8 8 9 9 10 10 10 10 10 10 11 11 11 11 11 12 12 12 12 11 12 12 12 12 12 12 13 13 13 13 13 13 13 13 13 14 14 14 14 14 14 14 14 14 14 14 14 14 14
8 8 9 9 10 10 10 9 10 10 10 11 11 11 11 11 11 11 11 11 11 11 11 12 12 12 12 12 13 13 13 13 13 13 13 13 13 13 13 13 13 13 14 14 14 14 14 14 14
8 8 9 9 10 10 9 9 9 9 10 10 11 11 11 11 11 11 11 11 11 11 11 11 11 11 12 12 12 12 12 12 12 13 13 13 13 13 13 13 13 13 13 13 13 13 13 13 14
9 8 8 8 9 9 9 9 8 10 10 10 10 10 10 10 10 10 10 10 10 10 11 11 11 11 11 11 11 12 12 12 12 12 12 12 12 12 12 12 13 13 13 13 13 13 13 13 13
8 8 8 8 8 9 9 9 9 9 10 9 9 10 10 10 10 10 10 10 10 10 10 10 10 11 11 11 11 11 11 11 11 11 11 11 11 11 12 12 12 12 12 12 12 12 12 12 13
6 7 8 8 8 8 8 8 8 9 9 8 9 9 9 9 9 9 9 9 9 10 10 10 10 10 10 10 10 10 10 10 10 10 10 11 11 11 11 11 11 11 12 12 12 12 12 12 12
7 7 7 8 8 8 8 7 7 8 8 8 8 8 9 9 9 9 9 9 9 9 9 9 9 9 10 10 10 10 10 10 10 10 10 10 10 10 10 11 11 11 11 11 11 11 11 11 12
7 7 7 7 8 7 7 7 7 7 7 7 7 8 8 8 8 8 8 9 9 9 9 9 9 9 9 9 9 9 9 9 9 9 9 10 10 10 10 10 10 10 10 11 11 11 11 11 11
7 7 7 7 7 7 6 6 6 7 7 7 7 7 8 8 8 8 8 8 8 8 8 8 8 9 8 9 8 8 8 9 9 9 9 9 9 9 9 9 9 10 10 10 10 10 10 10 10
6 6 7 7 7 6 6 7 7 7 7 7 7 7 8 8 8 8 8 8 8 8 8 8 8 8 8 8 8 8 8 8 8 9 9 9 8 9 9 9 9 9 9 9 9 10 9 9 10
6 7 7 7 6 5 6 6 6 6 6 6 6 7 7 8 8 7 7 7 7 7 7 7 7 7 7 7 8 8 8 8 8 8 8 8 8 8 8 8 8 8 8 9 9 9 9 9 9
6 7 6 6 5 5 5 5 5 6 7 7 6 7 7 8 7 7 7 7 7 7 7 7 7 7 7 7 7 7 7 7 7 7 7 7 7 7 8 8 8 8 8 8 8 8 8 8 8
6 6 6 4 4 6 5 5 5 5 6 7 6 7 7 7 7 7 7 7 7 7 7 6 7 7 7 7 7 7 7 7 7 7 7 7 7 7 7 7 7 7 7 7 7 7 8 8 8
6 5 5 5 4 5 5 4 5 6 6 6 6 7 7 7 7 7 7 7 7 7 7 6 6 6 6 6 6 6 6 6 6 6 6 7 7 7 7 7 7 7 7 7 7 7 7 7 7
6 6 5 6 5 4 4 4 5 6 6 6 6 7 7 7 7 7 7 7 7 7 6 6 6 6 6 6 6 6 6 6 6 6 6 6 6 6 6 6 6 6 6 6 6 6 6 6 6
6 5 5 4 4 4 4 4 5 6 6 6 6 6 7 7 7 7 7 7 7 7 6 6 6 6 6 6 6 6 6 5 5 5 5 5 5 5 5 5 5 5 5 5 5 6 6 5 5
6 5 4 4 6 6 5 5 5 7 7 6 5 6 7 7 7 7 7 7 7 6 6 6 6 6 6 5 5 5 5 5 5 5 5 5 5 5 5 5 5 5 5 5 5 5 5 5 5
6 5 5 4 4 5 5 6 6 6 7 6 6 7 7 7 7 7 7 7 6 6 6 6 6 6 5 5 5 5 5 5 4 4 4 4 4 4 4 4 4 4 4 4 4 4 4 4 4
6 5 4 5 5 4 4 5 7 6 5 6 6 7 8 8 7 7 7 7 6 6 6 6 6 5 5 5 5 5 4 4 4 4 4 4 4 4 4 4 4 4 4 4 4 3 3 3 3
Wind_Speed
3 3 3 4 5 4 3 3 2 2 2 1 3 7 9 6 4 5 1 6 6 3 4 4 4 4 4 5 5 6 6 6 5 5 5 6 6 6 6 6 6 6 6 5 6 7 7 7 8
1 2 4 5 5 3 4 3 4 3 3 4 5 6 7 5 3 3 3 7 6 4 6 6 6 5 4 4 4 4 4 4 4 4 4 4 5 5 5 5 5 5 5 5 5 6 6 7 8
2 3 4 4 4 6 5 3 5 2 3 4 5 5 5 3 2 2 5 6 5 6 7 7 7 6 5 4 3 3 2 2 3 3 3 3 3 4 4 5 5 5 5 5 6 6 6 7 8
3 4 5 4 4 3 3 1 3 4 4 5 5 6 4 3 2 2 5 5 6 7 8 8 8 7 6 5 4 3 2 0 1 3 3 4 4 4 4 4 5 6 6 6 6 7 7 8 8
4 4 4 2 3 1 1 1 1 4 3 4 4 6 4 4 4 4 5 6 7 7 9 9 9 8 7 6 5 4 3 2 1 2 3 4 5 5 5 5 5 6 7 7 6 7 8 9 9
4 4 4 5 4 1 1 1 2 4 4 4 5 5 3 3 5 5 6 7 7 7 10 11 11 10 10 8 7 5 5 4 3 3 3 4 5 6 5 6 6 7 8 8 8 8 9 9 9
4 4 5 7 5 2 1 2 3 4 5 3 4 6 3 2 4 5 6 7 8 10 10 11 12 11 10 9 8 8 6 5 5 5 4 5 5 6 6 6 7 7 8 9 9 10 10 10 10
5 5 4 4 6 3 1 2 3 4 4 2 3 7 4 1 3 5 6 8 8 9 9 11 12 12 11 10 9 9 8 7 6 6 6 6 6 6 7 7 8 8 9 10 10 11 11 11 11
4 4 4 6 6 4 1 3 3 3 5 4 4 3 3 3 4 6 7 7 8 9 8 9 11 12 12 10 10 10 9 8 7 7 7 7 6 6 6 8 9 9 10 10 11 12 12 13 12
4 4 4 2 3 4 2 3 3 4 5 4 5 4 4 5 6 7 7 7 8 8 8 7 9 10 11 10 10 9 8 8 7 7 6 6 6 6 6 7 9 9 10 10 11 12 12 12 10
4 5 3 2 1 3 3 3 2 6 3 3 5 4 3 5 6 6 6 5 5 5 7 8 8 10 9 8 8 7 7 7 7 7 6 6 5 5 5 4 6 7 8 8 9 9 9 9 9
5 3 3 2 2 3 3 3 4 3 3 3 5 5 4 5 5 4 4 4 5 6 7 8 8 8 9 8 7 6 6 6 6 7 7 5 3 3 3 3 4 4 5 5 6 5 7 8 10
4 3 2 4 6 5 5 4 4 2 2 4 5 5 5 4 3 3 3 4 5 6 7 8 7 7 8 7 6 6 6 6 6 7 7 5 3 3 3 3 3 4 5 4 4 5 6 6 8
4 5 4 5 5 4 4 3 3 0 2 5 5 4 4 4 3 3 5 5 6 6 7 7 7 8 8 6 5 5 6 7 7 7 7 7 4 3 3 3 3 4 5 5 5 5 6 6 6
4 6 6 5 3 2 3 4 1 1 4 4 3 3 3 3 4 4 3 4 5 6 7 8 7 8 8 7 6 6 6 6 6 7 8 7 6 4 3 3 4 4 6 5 5 5 5 5 5
5 5 4 4 3 3 3 0 1 1 4 3 2 2 2 2 2 3 3 4 5 6 7 8 8 8 8 7 6 5 6 5 5 7 8 8 7 6 4 3 4 5 5 4 4 4 5 6 6
6 4 2 2 3 3 3 2 2 1 3 2 2 2 1 0 2 3 3 4 5 5 6 7 8 8 8 7 6 5 5 5 5 7 7 8 8 6 4 3 4 5 3 3 4 4 4 5 6
3 3 2 0 2 2 0 4 5 2 2 3 3 3 2 1 2 2 3 3 4 5 6 6 7 8 7 6 5 4 4 4 5 6 7 8 7 7 5 3 4 4 3 3 3 4 4 4 4
6 5 3 1 1 1 2 5 7 4 3 4 4 4 4 3 2 1 2 3 4 5 6 7 8 8 7 5 4 4 4 4 4 5 8 9 8 7 5 4 3 3 3 4 4 4 4 4 2
6 5 3 2 3 2 2 6 6 3 3 4 6 6 5 3 2 2 2 3 4 5 6 6 7 7 7 5 4 3 3 3 3 4 7 9 9 8 6 4 3 3 3 4 3 3 2 2 2
6 3 2 1 3 4 4 6 4 2 1 2 3 4 4 4 4 3 2 2 3 4 5 6 6 6 6 6 4 4 3 2 3 5 5 7 9 9 7 6 4 3 3 3 4 3 2 3 2
3 1 2 3 3 3 3 3 6 3 4 3 4 4 4 4 4 3 3 3 3 3 4 4 5 5 5 5 4 4 3 3 3 4 4 6 8 9 9 7 6 4 3 3 4 4 3 2 2
2 2 3 3 3 2 2 1 8 3 4 5 5 5 5 5 5 4 4 4 3 3 3 4 4 4 4 4 4 3 3 2 3 3 5 6 6 8 10 9 7 5 4 4 4 4 3 3 3
2 4 5 4 4 2 2 3 7 4 5 4 3 4 5 5 4 4 4 3 3 2 2 3 3 3 4 4 4 4 4 4 4 5 5 5 5 5 9 9 7 6 5 5 4 3 4 3 3
5 5 4 5 4 4 1 3 9 7 6 5 6 5 5 4 4 4 4 4 4 3 3 2 2 3 3 3 4 3 3 3 4 4 4 5 4 5 7 7 7 6 6 6 4 4 4 4 4
2 4 5 3 3 5 2 6 7 5 4 4 4 4 3 4 4 5 5 4 4 4 3 2 2 2 2 2 2 3 3 2 3 3 3 4 4 4 6 7 7 7 8 7 5 4 5 5 5
3 2 3 4 1 3 6 7 8 3 3 3 3 3 4 5 5 5 5 5 5 5 4 3 2 2 1 1 1 2 3 3 3 3 3 3 4 4 6 7 7 7 8 8 6 5 5 5 5
2 5 4 3 0 4 6 6 5 5 4 3 4 5 6 5 5 6 5 5 5 4 4 2 2 2 1 0 1 1 2 2 2 3 4 4 5 5 6 6 7 7 7 7 7 6 6 6 6
3 2 3 2 2 2 5 7 6 6 5 5 6 6 6 6 6 6 5 5 4 3 3 3 2 2 1 0 0 1 1 2 2 3 3 4 4 5 6 6 6 7 7 7 7 6 7 7 6
4 5 5 3 3 3 3 8 5 5 5 5 6 5 5 6 6 6 5 4 3 4 3 3 3 3 2 2 1 1 1 2 2 3 3 4 4 4 4 5 5 6 6 6 6 6 6 6 6
Wind_Direction
11 51 71 60 66 69 201 226 206 151 149 109 95 106 115 109 124 142 237 343 338 351 17 45 73 87 104 115 120 123 130 133 132 131 134 139 140 144 149 155 161 162 162 160 153 150 150 145 138
69 82 60 67 108 153 237 221 181 177 159 120 73 80 83 79 51 76 349 334 345 22 36 42 57 73 81 94 112 124 133 146 151 150 150 151 156 161 168 172 175 174 176 176 166 156 156 154 150
111 66 91 92 138 180 194 195 179 122 84 101 84 62 86 77 28 26 330 325 12 34 39 40 50 55 60 63 67 92 120 151 174 176 174 178 182 188 190 194 193 189 187 183 175 168 167 165 161
95 61 64 96 185 209 195 183 174 127 71 57 97 76 66 25 0 347 333 1 44 34 35 38 42 41 44 49 47 40 42 42 196 204 208 210 211 212 213 212 206 200 196 194 192 186 180 177 175
65 91 91 125 203 225 265 312 115 108 90 61 92 97 64 358 2 14 16 35 46 33 30 33 33 30 30 28 27 22 20 12 345 266 241 234 232 230 227 224 218 214 208 205 206 202 194 193 191
69 84 120 178 191 184 14 342 82 87 91 78 87 96 93 354 19 11 29 41 41 36 28 28 26 24 21 18 14 7 2 356 339 319 293 272 258 249 242 238 232 225 221 218 216 210 207 205 205
115 111 146 163 159 151 102 57 91 105 90 86 114 103 122 2 11 17 35 42 38 34 28 23 21 19 14 9 5 1 347 340 331 320 313 308 290 269 257 248 243 239 234 229 224 219 215 214 213
127 110 117 153 152 167 124 80 74 99 111 68 92 123 150 234 6 29 37 38 34 32 24 17 14 13 8 1 360 356 348 338 330 322 313 307 300 286 270 256 250 247 242 237 232 227 223 220 218
97 91 159 175 165 162 100 98 60 63 88 55 50 99 111 72 44 42 34 27 25 23 17 14 9 6 1 357 356 354 351 344 334 327 320 309 299 289 277 263 256 252 247 243 240 235 230 225 222
84 135 178 173 164 146 94 92 106 87 69 72 67 60 65 66 64 57 44 27 17 8 4 10 5 1 357 356 351 349 350 345 340 333 327 316 303 288 283 275 262 257 253 250 246 243 236 229 222
87 137 147 79 80 107 97 72 55 111 97 156 146 129 85 73 64 60 46 28 8 355 357 359 358 357 356 351 348 346 345 344 342 340 335 325 314 304 297 284 273 264 257 252 252 248 237 226 219
99 70 99 80 69 72 83 86 64 72 146 142 136 130 105 82 64 51 36 15 1 0 354 353 353 353 352 348 342 342 346 343 340 332 329 331 327 315 304 283 277 267 257 249 245 240 235 228 224
93 120 66 66 72 75 76 64 86 57 86 99 103 99 101 90 68 41 33 21 10 0 350 347 346 350 349 348 344 347 341 340 336 333 327 324 314 291 290 289 282 274 264 249 247 242 239 235 230
107 92 74 47 52 46 72 50 69 317 122 107 99 94 87 78 62 39 22 13 4 353 344 340 344 348 347 346 339 338 339 339 339 335 329 322 313 306 292 283 277 276 271 259 249 246 244 243 237
93 84 52 24 40 38 61 32 60 211 118 105 99 95 82 70 62 47 19 6 354 346 342 342 342 351 348 343 339 343 341 343 344 336 329 323 314 305 296 278 275 277 276 269 260 255 250 247 242
60 68 63 354 36 26 82 185 326 93 122 128 126 106 93 63 48 27 15 5 356 351 347 344 348 348 346 343 337 341 346 348 343 337 335 330 323 314 308 287 284 289 280 267 263 256 255 252 246
48 93 95 359 28 48 91 221 280 54 131 190 212 200 172 39 16 7 8 7 1 355 347 344 345 346 341 338 337 338 345 350 344 343 344 338 334 330 321 301 304 304 285 275 274 267 257 256 255
140 120 108 203 356 60 103 262 285 280 196 222 227 220 217 236 294 328 357 5 4 357 351 346 346 348 343 337 335 341 350 351 354 354 352 345 343 342 340 328 322 318 296 288 281 273 266 261 261
123 115 100 356 13 52 253 273 280 277 233 231 228 223 228 242 268 312 349 1 2 360 358 354 353 350 352 347 344 340 341 339 346 358 359 355 353 350 350 331 324 322 302 294 286 271 273 267 275
89 95 68 12 22 48 312 284 273 250 223 218 215 220 224 237 277 297 324 358 358 349 349 351 350 346 347 340 322 307 312 321 333 353 3 3 2 357 356 338 326 327 315 312 311 306 277 269 246
53 97 116 42 6 38 355 312 288 278 237 214 211 213 220 219 237 263 290 318 334 339 342 342 340 342 344 343 340 343 351 342 352 357 358 2 5 4 3 355 348 346 345 331 325 325 296 282 271
62 22 104 76 55 348 37 304 286 283 285 251 234 227 231 232 236 249 266 291 303 310 325 327 331 339 344 352 2 8 14 1 345 342 346 351 3 5 4 3 4 359 354 349 342 344 321 299 292
126 64 84 83 90 5 19 207 286 305 273 263 245 234 236 233 234 244 250 261 278 298 317 321 327 339 349 0 9 18 16 353 336 350 359 1 0 6 7 7 7 1 353 351 354 350 347 323 305
104 69 61 50 61 326 253 188 280 251 235 263 254 236 235 234 241 249 252 260 277 299 315 319 328 339 351 6 17 25 16 4 7 7 4 1 358 2 5 6 7 3 357 350 350 355 1 348 336
62 76 35 4 3 263 234 217 253 256 239 235 251 251 240 232 235 247 253 261 273 285 296 309 334 342 352 11 22 21 14 12 13 4 3 3 3 2 360 6 6 5 360 360 2 10 10 6 1
70 115 142 197 250 289 289 243 257 260 266 254 250 247 240 236 239 246 246 245 254 262 268 281 303 318 348 9 14 21 20 23 17 14 13 12 6 360 1 8 12 13 13 14 17 27 23 24 19
111 104 143 131 162 286 279 281 296 258 264 259 261 259 253 249 252 255 254 246 245 249 250 246 255 281 318 353 28 41 34 36 30 23 25 21 12 12 15 18 20 20 22 23 24 29 23 27 29
118 139 99 112 175 292 295 277 261 274 262 262 252 255 259 255 256 260 258 250 243 239 245 239 229 238 261 317 43 66 50 42 40 41 33 28 20 18 20 24 25 25 27 29 37 35 27 37 31
134 126 122 127 165 197 291 279 228 227 238 246 253 252 255 254 254 256 257 252 245 239 232 233 229 224 227 221 92 78 60 50 54 50 34 27 26 23 25 26 28 28 28 29 39 40 39 40 34
184 183 159 169 224 199 237 272 267 238 249 251 261 265 263 259 256 255 253 248 242 237 230 225 222 216 212 191 158 130 86 64 55 41 28 28 26 23 24 30 34 32 30 31 37 37 37 39 34
Height
1492 1494 1497 1501 1505 1516 1516 1511 1508 1507 1508 1507 1508 1509 1512 1517 1521 1528 1526 1524 1525 1525 1526 1527 1527 1528 1529 1530 1531 1532 1533 1533 1534 1534 1535 1535 1536 1536 1536 1537 1537 1537 1537 1538 1538 1538 1539 1539 1539
1492 1495 1499 1500 1510 1521 1515 1508 1507 1506 1506 1507 1508 1510 1513 1517 1520 1522 1523 1524 1525 1525 1526 1527 1527 1528 1529 1530 1531 1531 1532 1533 1534 1534 1535 1535 1535 1536 1536 1536 1537 1537 1537 1538 1538 1539 1539 1539 1539
1492 1495 1498 1502 1511 1514 1509 1505 1505 1504 1505 1506 1509 1512 1515 1518 1520 1522 1523 1524 1525 1525 1526 1526 1527 1528 1528 1529 1530 1530 1531 1532 1533 1533 1534 1534 1535 1535 1536 1536 1536 1537 1537 1538 1538 1538 1539 1539 1539
1493 1496 1498 1506 1508 1507 1505 1503 1503 1504 1505 1507 1509 1514 1517 1520 1521 1522 1523 1524 1525 1525 1526 1526 1527 1527 1528 1529 1529 1530 1530 1531 1532 1532 1533 1533 1534 1534 1535 1535 1536 1536 1537 1537 1537 1538 1538 1539 1539
1492 1494 1502 1509 1506 1505 1503 1502 1503 1504 1506 1508 1510 1514 1518 1521 1521 1522 1523 1524 1524 1525 1525 1526 1526 1526 1527 1528 1528 1529 1529 1530 1530 1531 1531 1532 1532 1533 1533 1534 1534 1535 1535 1536 1536 1537 1537 1538 1538
1492 1493 1506 1510 1506 1504 1503 1502 1503 1505 1507 1509 1511 1515 1519 1521 1522 1523 1523 1524 1524 1524 1525 1525 1525 1525 1526 1526 1527 1527 1528 1528 1529 1529 1529 1530 1530 1531 1532 1532 1533 1533 1534 1534 1535 1535 1536 1536 1537
1491 1496 1503 1505 1505 1504 1503 1503 1504 1506 1508 1510 1512 1515 1519 1521 1522 1523 1523 1523 1523 1524 1524 1524 1524 1524 1525 1525 1525 1525 1526 1526 1527 1527 1527 1528 1528 1529 1529 1530 1531 1531 1532 1532 1533 1533 1534 1535 1535
1490 1496 1502 1505 1504 1504 1503 1503 1505 1506 1509 1511 1512 1515 1519 1521 1521 1522 1523 1523 1523 1523 1523 1523 1523 1523 1523 1523 1523 1523 1524 1524 1524 1525 1525 1525 1526 1526 1527 1527 1528 1529 1529 1530 1531 1531 1532 1532 1533
1490 1499 1503 1503 1502 1503 1502 1504 1506 1507 1508 1511 1512 1515 1518 1520 1521 1522 1522 1522 1522 1522 1522 1522 1522 1521 1521 1521 1521 1521 1521 1521 1522 1522 1522 1523 1523 1523 1524 1524 1525 1526 1526 1527 1528 1528 1529 1530 1530
1490 1500 1499 1500 1500 1501 1502 1503 1506 1508 1510 1512 1514 1516 1518 1519 1520 1521 1521 1521 1521 1521 1520 1520 1520 1520 1520 1519 1519 1519 1519 1519 1519 1519 1519 1519 1520 1520 1521 1521 1522 1522 1523 1523 1524 1525 1526 1526 1527
1492 1497 1498 1499 1500 1500 1502 1504 1506 1507 1511 1512 1513 1516 1517 1519 1519 1520 1520 1520 1520 1519 1519 1519 1518 1518 1517 1517 1517 1517 1516 1516 1516 1516 1516 1516 1516 1517 1517 1518 1518 1519 1519 1520 1520 1521 1522 1522 1523
1494 1498 1498 1500 1500 1501 1503 1505 1507 1508 1511 1513 1514 1515 1517 1518 1519 1519 1519 1519 1519 1519 1518 1517 1516 1516 1515 1514 1514 1514 1513 1513 1513 1513 1513 1513 1513 1513 1513 1514 1514 1515 1515 1516 1516 1517 1518 1518 1519
1495 1499 1500 1501 1501 1503 1504 1506 1508 1510 1512 1513 1514 1516 1517 1517 1518 1519 1519 1518 1518 1517 1517 1516 1515 1514 1513 1512 1511 1510 1510 1510 1509 1509 1509 1509 1509 1509 1509 1510 1510 1511 1511 1512 1512 1513 1513 1514 1515
1497 1499 1502 1503 1503 1505 1506 1508 1509 1511 1512 1513 1514 1515 1516 1517 1517 1518 1518 1517 1516 1516 1515 1514 1513 1512 1511 1510 1508 1508 1507 1506 1506 1506 1505 1505 1505 1505 1505 1506 1506 1506 1507 1508 1508 1508 1509 1509 1510
1498 1501 1504 1505 1505 1507 1508 1511 1511 1512 1512 1513 1514 1515 1516 1516 1517 1517 1516 1516 1515 1514 1513 1512 1511 1510 1508 1507 1506 1505 1504 1503 1502 1502 1502 1502 1502 1501 1501 1501 1502 1502 1503 1503 1503 1504 1504 1504 1505
1500 1505 1509 1509 1507 1508 1512 1514 1512 1511 1512 1513 1513 1514 1515 1515 1515 1515 1515 1515 1514 1513 1512 1511 1509 1508 1506 1505 1504 1502 1501 1500 1500 1499 1498 1498 1498 1498 1497 1497 1498 1498 1498 1499 1499 1499 1499 1499 1500
1508 1511 1511 1511 1509 1510 1512 1514 1512 1511 1511 1512 1512 1513 1514 1514 1514 1514 1514 1513 1512 1511 1510 1509 1507 1506 1504 1503 1502 1500 1499 1498 1497 1496 1496 1495 1495 1494 1494 1494 1494 1494 1494 1494 1494 1494 1494 1494 1495
1511 1513 1512 1513 1511 1511 1513 1513 1511 1511 1511 1511 1511 1512 1512 1513 1513 1513 1512 1512 1511 1510 1508 1507 1506 1504 1502 1501 1500 1499 1498 1497 1496 1494 1493 1493 1492 1491 1491 1490 1490 1490 1490 1490 1490 1490 1490 1490 1490
1508 1511 1513 1513 1512 1513 1514 1513 1510 1509 1509 1508 1509 1509 1510 1511 1511 1511 1511 1510 1509 1508 1507 1505 1504 1502 1500 1499 1498 1496 1495 1494 1493 1492 1491 1490 1489 1488 1487 1486 1486 1486 1485 1485 1485 1485 1485 1485 1486
1509 1512 1515 1514 1513 1514 1515 1513 1508 1506 1506 1506 1506 1507 1508 1508 1509 1509 1509 1508 1507 1506 1505 1503 1502 1500 1499 1497 1496 1495 1494 1492 1491 1490 1489 1488 1487 1485 1484 1483 1482 1482 1482 1482 1481 1481 1481 1481 1481
1513 1515 1516 1517 1516 1516 1517 1512 1507 1505 1504 1504 1504 1505 1506 1506 1507 1507 1507 1506 1505 1504 1503 1501 1500 1498 1497 1496 1495 1493 1492 1491 1490 1488 1487 1486 1484 1483 1482 1481 1480 1479 1478 1478 1478 1477 1477 1477 1477
1516 1515 1515 1517 1521 1524 1523 1523 1509 1505 1504 1502 1502 1502 1503 1504 1505 1505 1505 1504 1503 1502 1501 1500 1498 1497 1496 1494 1493 1492 1490 1489 1488 1487 1485 1484 1483 1481 1480 1478 1477 1476 1475 1475 1474 1474 1474 1474 1474
1517 1516 1517 1519 1522 1526 1526 1527 1514 1506 1503 1500 1500 1500 1501 1502 1502 1503 1503 1502 1502 1501 1499 1498 1497 1496 1494 1493 1492 1490 1489 1488 1487 1486 1484 1483 1481 1480 1478 1477 1475 1474 1473 1472 1471 1471 1471 1471 1470
1516 1518 1520 1524 1526 1527 1525 1529 1518 1508 1501 1498 1497 1498 1499 1500 1500 1501 1501 1500 1500 1499 1498 1496 1495 1494 1493 1491 1490 1489 1488 1487 1486 1484 1483 1481 1480 1478 1476 1475 1473 1472 1470 1469 1469 1469 1468 1468 1468
1518 1524 1532 1530 1535 1530 1526 1527 1516 1500 1497 1497 1496 1496 1496 1498 1498 1498 1498 1498 1497 1497 1496 1495 1494 1492 1491 1490 1489 1488 1487 1485 1484 1483 1481 1479 1478 1476 1474 1473 1472 1470 1469 1468 1467 1466 1466 1465 1465
1521 1524 1532 1530 1533 1532 1526 1524 1507 1496 1495 1494 1494 1494 1495 1496 1496 1496 1496 1496 1495 1494 1494 1493 1492 1491 1490 1489 1487 1486 1485 1484 1483 1481 1480 1478 1476 1475 1473 1472 1470 1469 1467 1466 1465 1465 1464 1463 1463
1521 1526 1527 1535 1536 1535 1527 1519 1503 1494 1493 1493 1493 1493 1493 1494 1494 1494 1494 1494 1493 1492 1492 1491 1490 1489 1488 1487 1486 1485 1484 1483 1481 1480 1479 1477 1475 1474 1472 1471 1469 1468 1466 1465 1464 1463 1462 1461 1461
1520 1524 1530 1532 1529 1527 1522 1518 1509 1495 1492 1492 1492 1492 1491 1492 1492 1492 1491 1491 1490 1490 1489 1489 1488 1487 1487 1486 1485 1484 1483 1482 1480 1479 1478 1476 1474 1473 1471 1470 1468 1466 1465 1463 1462 1461 1460 1459 1458
1522 1524 1527 1531 1532 1530 1528 1513 1496 1493 1490 1491 1490 1490 1490 1490 1490 1489 1489 1489 1488 1487 1487 1486 1486 1485 1485 1484 1483 1482 1481 1480 1479 1478 1476 1475 1473 1472 1470 1468 1467 1465 1464 1462 1461 1459 1458 1457 1456
1519 1521 1526 1528 1529 1532 1531 1514 1490 1490 1489 1489 1488 1488 1488 1487 1487 1487 1486 1486 1485 1485 1484 1484 1483 1483 1482 1482 1481 1480 1480 1479 1477 1476 1475 1474 1472 1471 1469 1467 1466 1464 1462 1461 1459 1458 1456 1455 1454